Retour au catalogue

LRE

ActifScienceHEO
NORAD 26898·PAYLOAD·🇯🇵 Japan

Lancé Aug 29, 2001 depuis Tanegashima Space Center

Loading…

Prochains Passages (prochaines 24 heures)

TLE

FraisSource: Space-Track

Époque: Sep 13, 2026, 12:39 UTC

1 26898U 01038A   26256.52772725  .00001675  00000-0  19571-3 0  9998
2 26898  28.5153  61.5034 6998397 355.8803   0.4113  2.66575177223092

Suivez LRE en temps réel avec AllMySat

Download on the App Store